SCP
0 0 0 -0 0 0 0 0 0 -0 -0 -0 -0 0 0 0 1 -0 -0 0 -0 -1 0 0 0 0 0 0 0 0 0 0 0 0 0 0 0 0 0 0 0 0 0 0
0 0 0 0 0 0 -0 0 0 0 0 0 -0 0 1 0 0 1 -0 -0 0 -0 -0 0 0 0 0 0 0 0 0 0 0 0 0 0 0 0 0 0 0 0 0 0
0 0 0 0 0 0 0 0 0 0 0 0 0 0 0 0 0 1 1 2 1 1 1 0 0 0 0 0 0 0 0 0 0 0 0 0 0 0 0 0 0 0 0 0
0 0 0 0 0 0 0 0 0 0 0 0 -0 0 0 0 1 2 3 1 0 0 0 0 0 0 0 0 0 0 0 0 0 0 0 0 0 0 0 0 0 0 0 0
0 0 0 0 0 0 0 0 0 0 0 0 1 1 4 4 4 2 -1 1 1 0 0 0 0 0 0 0 0 0 0 0 0 0 0 0 0 0 0 0 0 0 0 0
0 0 0 0 0 0 0 0 0 0 0 0 1 3 3 2 1 2 3 2 1 0 0 0 0 0 0 0 0 0 0 0 0 0 0 0 0 0 0 0 0 0 0 0
0 0 0 0 0 -0 0 0 0 0 0 0 1 1 1 0 0 2 3 2 1 0 0 0 0 0 0 0 0 0 0 0 0 0 0 0 0 0 0 0 0 0 0 0
0 0 0 0 0 0 0 0 0 0 2 1 1 1 1 2 2 4 1 1 1 0 0 0 0 0 0 0 0 0 0 0 0 0 0 0 0 0 0 0 0 0 0 0
-0 0 0 0 0 0 0 0 0 0 1 0 0 0 4 4 1 3 -0 1 -0 0 0 0 0 0 0 0 0 0 0 0 0 0 0 0 0 0 0 0 0 0 0 0
0 -0 0 0 0 0 0 0 0 0 -0 0 0 0 0 0 0 -0 0 0 0 0 0 0 0 0 0 0 0 0 0 0 0 0 0 0 0 0 0 0 0 0 0 0
0 0 -0 0 0 0 0 0 0 0 -0 0 0 0 0 0 1 -0 0 0 0 0 0 0 0 0 0 0 0 0 0 0 0 0 0 0 0 0 0 0 0 0 0 0
0 -0 -0 0 0 0 -0 0 0 0 0 0 1 1 1 2 2 1 0 -0 0 0 0 0 0 0 0 0 0 0 0 0 0 0 0 0 -0 -0 -0 0 0 0 -0 0
-0 -0 0 0 0 0 0 0 0 0 0 0 1 1 6 1 0 -0 -0 -0 -0 0 0 0 0 0 0 0 0 0 0 0 0 0 0 0 -0 0 0 0 0 0 0 0
0 0 0 -0 0 0 0 -1 0 0 0 0 0 0 -0 -0 -0 -0 -0 -0 0 0 0 0 0 0 0 0 0 0 0 0 0 0 0 0 0 0 0 0 0 0 0 0
0 0 0 -0 -0 0 0 -0 -0 0 1 0 -0 -0 -1 0 -0 0 -0 0 0 0 0 0 0 0 0 0 0 0 0 0 0 0 0 0 0 0 -0 -0 0 0 0 0
0 0 0 0 0 0 0 0 0 0 1 0 0 0 0 1 0 0 0 0 0 0 0 0 0 0 0 0 0 0 0 0 0 0 0 0 0 0 0 0 0 0 0 0
0 0 0 0 1 1 1 0 0 1 2 2 1 1 0 0 0 0 0 0 0 0 0 0 0 0 0 0 0 0 0 0 -0 0 0 0 0 0 0 0 0 0 0 0
0 0 0 0 0 1 1 0 1 1 2 2 1 1 0 0 0 0 0 0 0 0 0 0 0 0 0 0 -0 -0 0 0 0 -0 -0 -0 -0 0 0 0 0 0 0 0
0 0 0 0 0 1 1 1 1 1 2 1 1 1 0 0 0 0 0 0 0 0 0 0 0 0 0 0 0 0 -0 0 0 0 0 0 -0 0 0 0 0 0 0 0
0 0 0 0 1 1 1 1 1 1 1 1 1 0 0 0 0 0 0 0 0 0 0 0 0 0 0 0 0 -0 -0 -0 -0 0 0 0 0 0 0 0 0 0 0 0
0 0 0 0 1 0 1 1 1 1 0 0 0 0 0 0 0 0 0 0 0 0 0 0 0 0 0 0 -0 -0 -0 -0 -0 0 0 0 0 0 0 0 0 0 0 0
0 -0 0 1 1 1 1 0 0 0 0 0 0 0 0 0 0 0 0 0 0 0 0 0 0 0 0 0 -0 -0 -0 0 0 0 0 0 0 0 0 0 0 0 0 0
1 0 1 1 0 0 0 0 0 0 0 0 0 0 0 0 0 0 0 0 0 0 0 0 0 0 0 0 0 0 0 0 0 0 0 0 0 0 0 0 0 0 0 0
0 1 0 0 0 0 0 0 0 0 0 0 0 0 0 0 0 0 0 0 0 0 0 0 -0 0 0 0 -0 0 0 0 0 0 0 0 0 0 0 0 0 0 0 0
0 0 0 0 0 0 0 0 0 0 0 0 0 0 0 0 0 0 0 0 0 0 -0 -0 0 0 0 0 0 -0 0 0 0 0 0 0 0 0 0 0 0 0 0 0
0 0 0 0 0 0 0 0 0 0 0 0 0 0 -0 -0 0 0 0 0 0 -0 -0 -0 -0 -0 -0 0 0 0 0 0 0 0 0 0 0 0 0 0 0 0 0 0
0 0 0 0 0 0 0 0 0 0 0 0 0 -0 0 0 0 0 0 0 0 -0 -0 -0 -0 0 0 0 0 0 0 0 0 0 0 0 0 0 0 0 0 0 0 0
Wind_Speed_500mb
18 21 29 23 17 20 21 20 12 13 31 38 46 31 25 21 35 65 74 77 78 69 69 59 52 47 52 48 43 44 46 34 28 23 20 14 8 5 8 10 14 20 19 18
16 23 25 27 23 21 14 23 17 15 14 43 66 40 43 54 33 47 74 81 76 74 68 57 53 54 55 51 49 44 41 30 22 17 16 15 12 12 15 16 14 18 19 24
14 19 20 16 16 16 17 11 13 14 20 9 28 44 63 77 74 66 68 72 71 74 66 61 53 60 61 56 51 43 36 24 18 17 16 16 17 17 16 15 14 14 16 22
12 11 14 19 20 16 18 19 18 14 12 4 55 90 86 75 64 64 65 66 70 69 64 65 62 61 60 53 45 39 29 22 20 19 18 21 19 17 14 14 15 19 18 23
3 6 13 15 19 13 14 23 17 21 15 35 63 62 34 88 92 89 91 93 77 69 63 60 65 65 58 49 44 35 29 22 23 20 21 22 21 17 14 15 11 10 14 15
9 6 12 14 22 33 26 16 33 19 18 42 49 21 25 90 102 88 85 89 80 68 59 71 71 60 53 48 40 33 27 22 23 19 20 23 19 15 16 14 8 2 5 8
12 10 15 22 26 32 13 10 31 49 25 15 23 34 103 101 75 77 96 91 78 69 77 82 71 56 53 43 36 30 24 24 25 21 22 18 16 16 17 17 21 10 6 3
11 10 16 42 16 12 16 26 35 53 28 34 28 54 80 51 40 43 87 80 77 86 87 81 66 56 52 42 35 31 25 28 31 25 23 15 15 17 20 19 11 4 6 10
10 8 13 50 21 50 52 48 51 44 17 27 74 88 77 82 87 52 39 65 79 85 81 68 58 48 47 42 36 31 26 29 30 28 23 11 19 25 18 10 5 15 8 12
19 12 36 24 41 50 63 74 62 59 16 27 68 67 76 65 51 59 89 87 81 83 75 63 51 46 41 37 33 31 30 31 37 36 23 18 25 19 4 6 3 11 20 13
15 12 43 31 58 50 55 67 63 61 33 30 30 43 72 82 77 91 93 86 83 73 65 57 50 47 41 33 33 33 30 31 31 30 29 30 25 14 8 7 3 14 13 9
11 16 9 34 34 46 43 69 76 76 40 49 25 57 49 77 95 99 89 85 76 64 58 58 55 49 40 33 35 39 33 31 30 23 21 28 24 20 17 11 9 7 7 5
7 12 32 46 41 33 23 51 74 83 60 34 43 65 54 56 86 88 85 79 69 67 66 60 53 45 36 38 40 35 32 32 28 22 19 16 22 25 24 17 26 25 19 13
15 16 31 45 38 38 21 25 61 79 102 76 97 77 88 93 91 84 77 74 70 62 57 52 50 42 35 37 41 32 31 25 24 24 24 22 16 19 21 22 29 31 23 24
34 43 36 10 68 56 26 53 87 84 34 100 95 91 103 90 83 75 70 68 63 57 56 50 43 41 41 35 40 42 37 25 23 30 19 22 19 23 25 27 30 23 28 25
43 37 45 51 66 47 40 23 42 55 41 80 79 84 80 88 84 75 70 65 61 57 48 45 46 40 31 38 45 46 32 27 32 24 11 24 22 22 26 27 18 22 18 21
40 48 38 45 26 17 8 17 31 37 49 44 63 78 72 74 75 72 60 50 41 41 39 37 35 29 29 32 43 41 32 27 28 27 31 26 24 18 8 14 20 26 26 7
58 50 43 51 48 12 5 16 12 33 49 67 71 72 70 66 66 62 58 50 41 37 34 31 26 24 31 31 44 40 28 22 20 9 20 25 19 17 22 23 15 16 10 9
71 61 52 42 18 17 16 12 41 37 52 74 80 75 70 67 69 64 60 49 42 37 27 24 25 29 35 45 40 32 20 28 35 30 27 25 32 20 25 19 12 7 12 12
71 55 51 31 22 18 24 32 45 58 65 71 70 67 63 59 58 56 51 51 35 33 29 35 30 35 40 45 33 26 25 27 16 24 31 17 19 10 19 19 23 24 17 17
69 53 38 36 31 30 31 46 63 74 76 70 59 60 61 59 49 47 42 31 26 28 27 31 34 38 35 39 40 35 26 10 13 15 9 13 18 16 7 9 10 12 17 18
52 62 46 38 42 39 37 45 55 59 62 60 52 51 54 48 41 32 25 32 41 29 23 30 40 28 19 24 32 28 13 10 14 11 9 14 21 13 16 19 20 22 24 25
11 49 52 55 47 43 49 39 43 47 48 51 55 52 47 42 39 46 42 35 35 30 27 45 38 28 24 22 17 12 15 15 6 17 14 13 10 18 23 22 20 21 21 24
21 42 48 47 48 54 49 41 47 46 44 41 35 32 35 41 45 38 30 25 26 28 35 38 31 25 23 29 26 22 12 19 14 12 2 13 9 12 12 12 14 21 26 25
9 52 56 63 59 60 57 55 49 39 34 31 26 28 25 37 43 36 30 26 24 43 32 32 34 23 23 28 25 24 22 24 28 26 25 28 26 24 18 22 22 21 25 26
48 70 64 54 61 53 46 46 41 35 33 36 39 43 40 30 27 33 29 28 41 41 25 31 27 27 27 26 20 17 23 26 27 30 26 22 22 25 24 23 25 31 26 24
74 68 64 60 52 49 52 48 48 40 39 45 46 32 26 35 37 33 26 27 40 40 31 27 24 24 17 19 24 24 24 25 26 29 28 18 19 24 23 23 27 31 26 30
Wind_Direction_500mb
292 292 295 274 259 229 209 221 204 249 158 186 201 189 183 153 131 148 154 157 161 163 170 173 171 167 164 173 181 176 183 194 200 201 213 226 214 170 116 117 99 92 81 60
292 293 297 301 293 295 266 211 227 238 220 192 206 157 151 155 185 184 160 162 166 170 174 173 175 171 172 180 183 187 198 205 206 206 200 186 168 139 124 115 99 93 86 65
258 282 305 315 278 290 294 282 198 226 237 189 153 159 178 184 193 188 161 157 167 172 178 176 179 175 181 186 188 198 199 196 198 192 180 169 154 143 129 117 104 89 79 79
228 256 277 261 290 289 292 287 288 299 278 273 172 179 183 187 185 167 160 170 178 177 179 178 178 183 184 193 196 195 195 195 190 184 172 161 153 144 131 113 98 81 71 72
171 236 255 285 282 276 261 279 264 246 257 105 117 135 147 174 174 174 185 175 175 182 185 179 177 187 191 196 194 192 195 188 184 180 169 161 152 147 132 106 85 58 43 91
295 261 265 253 338 320 280 264 347 290 213 137 145 153 183 167 175 180 177 173 171 176 178 175 181 188 193 194 193 195 193 182 178 176 172 164 165 164 153 135 116 95 334 50
261 234 260 19 332 38 71 271 345 7 354 180 181 196 183 174 176 172 173 167 171 177 177 180 182 188 190 189 193 191 186 179 180 182 170 172 164 150 147 115 100 116 146 221
309 218 268 355 9 59 289 343 354 14 16 71 104 112 137 156 168 148 149 158 164 171 178 180 183 189 186 183 192 194 190 185 184 182 176 170 161 145 145 133 119 105 317 299
29 292 46 26 6 360 355 352 358 354 22 113 121 117 129 137 143 108 225 164 170 171 172 175 183 190 177 182 192 199 189 184 175 168 159 181 158 135 139 144 288 331 325 322
344 328 356 341 344 342 346 344 337 335 32 143 124 130 134 156 180 185 180 171 169 170 169 172 183 187 188 183 194 200 186 171 158 160 176 181 154 155 166 291 231 281 269 259
260 291 350 16 349 347 330 338 344 353 21 175 155 157 148 150 155 162 159 165 169 172 172 175 183 191 187 183 199 188 177 168 170 179 188 172 163 164 194 265 94 91 84 101
245 263 241 276 325 324 320 335 324 322 315 186 199 149 144 155 160 158 158 166 169 176 183 183 186 191 184 193 190 182 174 169 161 145 158 160 168 182 193 244 227 231 252 299
199 271 272 267 276 287 304 305 305 306 290 237 176 152 131 169 164 159 167 173 185 188 185 183 189 190 184 185 177 177 168 162 168 183 199 197 208 219 231 273 261 247 259 298
207 116 286 278 252 226 168 357 272 275 288 258 195 172 163 169 165 168 171 175 177 176 179 189 187 186 179 172 170 170 164 190 208 210 229 230 225 243 260 271 268 278 267 291
212 226 218 306 281 238 251 229 249 265 259 176 171 156 154 157 162 164 169 175 175 177 182 185 189 184 175 167 173 176 179 193 195 191 219 223 235 248 256 254 267 275 301 300
276 276 246 254 238 253 211 247 282 313 159 120 137 144 152 164 160 160 168 176 175 177 186 189 192 186 181 174 169 173 174 184 199 210 217 231 248 251 272 277 288 311 315 326
266 276 293 296 317 0 209 257 305 293 132 139 138 143 142 149 150 152 159 168 179 187 182 183 188 183 181 182 169 168 168 179 198 220 244 231 241 278 289 284 287 298 311 319
274 275 267 266 282 261 330 298 195 175 167 159 148 155 157 158 152 158 165 169 176 176 183 183 190 195 186 176 158 162 182 204 213 197 174 195 224 238 256 279 304 314 328 343
249 260 261 253 244 217 244 225 177 190 169 160 158 159 164 165 166 165 166 173 175 177 189 203 198 189 177 168 178 191 224 242 240 246 245 246 254 253 271 299 313 308 315 308
237 251 251 258 241 230 222 201 185 172 166 162 161 158 160 161 165 173 177 177 190 176 184 200 184 185 179 175 192 207 204 208 281 284 254 208 254 243 289 265 287 273 279 287
227 235 233 245 187 187 158 160 161 163 169 164 164 161 160 161 165 171 172 178 179 169 165 183 178 167 179 188 193 189 198 236 301 288 302 316 305 302 262 238 269 273 288 294
219 230 232 203 170 151 150 163 176 161 159 163 161 161 162 165 169 168 172 170 173 177 168 174 159 152 168 168 179 183 218 306 258 316 330 294 297 268 246 262 278 293 298 305
350 216 199 170 173 168 152 154 163 171 170 164 161 166 169 169 168 159 170 184 174 174 165 158 159 172 194 189 189 229 282 245 312 310 305 320 301 271 274 285 297 301 305 307
0 144 158 153 144 136 133 140 148 150 157 156 165 168 166 164 164 175 176 162 173 152 152 162 169 186 200 200 211 225 273 312 256 275 197 310 336 290 271 263 284 302 305 296
182 155 149 145 135 134 142 143 146 149 152 153 158 165 162 163 158 168 174 164 161 158 168 192 190 193 199 215 224 229 234 258 275 236 268 294 308 274 273 301 310 303 302 307
182 155 151 151 153 150 150 158 153 154 156 149 146 140 143 154 177 172 178 173 171 172 170 178 189 202 205 216 237 230 231 250 254 256 276 284 275 251 265 281 288 302 298 289
163 160 152 145 142 150 148 142 147 138 148 146 145 155 176 171 168 165 166 170 176 175 180 197 205 200 214 238 249 252 254 268 224 252 275 284 260 266 273 279 296 311 298 297
Wind_Speed_850mb
18 21 29 23 17 20 21 20 12 13 31 38 46 31 25 21 35 65 74 77 78 69 69 59 52 47 52 48 43 44 46 34 28 23 20 14 8 5 8 10 14 20 19 18
16 23 25 27 23 21 14 23 17 15 14 43 66 40 43 54 33 47 74 81 76 74 68 57 53 54 55 51 49 44 41 30 22 17 16 15 12 12 15 16 14 18 19 24
14 19 20 16 16 16 17 11 13 14 20 9 28 44 63 77 74 66 68 72 71 74 66 61 53 60 61 56 51 43 36 24 18 17 16 16 17 17 16 15 14 14 16 22
12 11 14 19 20 16 18 19 18 14 12 4 55 90 86 75 64 64 65 66 70 69 64 65 62 61 60 53 45 39 29 22 20 19 18 21 19 17 14 14 15 19 18 23
3 6 13 15 19 13 14 23 17 21 15 35 63 62 34 88 92 89 91 93 77 69 63 60 65 65 58 49 44 35 29 22 23 20 21 22 21 17 14 15 11 10 14 15
9 6 12 14 22 33 26 16 33 19 18 42 49 21 25 90 102 88 85 89 80 68 59 71 71 60 53 48 40 33 27 22 23 19 20 23 19 15 16 14 8 2 5 8
12 10 15 22 26 32 13 10 31 49 25 15 23 34 103 101 75 77 96 91 78 69 77 82 71 56 53 43 36 30 24 24 25 21 22 18 16 16 17 17 21 10 6 3
11 10 16 42 16 12 16 26 35 53 28 34 28 54 80 51 40 43 87 80 77 86 87 81 66 56 52 42 35 31 25 28 31 25 23 15 15 17 20 19 11 4 6 10
10 8 13 50 21 50 52 48 51 44 17 27 74 88 77 82 87 52 39 65 79 85 81 68 58 48 47 42 36 31 26 29 30 28 23 11 19 25 18 10 5 15 8 12
19 12 36 24 41 50 63 74 62 59 16 27 68 67 76 65 51 59 89 87 81 83 75 63 51 46 41 37 33 31 30 31 37 36 23 18 25 19 4 6 3 11 20 13
15 12 43 31 58 50 55 67 63 61 33 30 30 43 72 82 77 91 93 86 83 73 65 57 50 47 41 33 33 33 30 31 31 30 29 30 25 14 8 7 3 14 13 9
11 16 9 34 34 46 43 69 76 76 40 49 25 57 49 77 95 99 89 85 76 64 58 58 55 49 40 33 35 39 33 31 30 23 21 28 24 20 17 11 9 7 7 5
7 12 32 46 41 33 23 51 74 83 60 34 43 65 54 56 86 88 85 79 69 67 66 60 53 45 36 38 40 35 32 32 28 22 19 16 22 25 24 17 26 25 19 13
15 16 31 45 38 38 21 25 61 79 102 76 97 77 88 93 91 84 77 74 70 62 57 52 50 42 35 37 41 32 31 25 24 24 24 22 16 19 21 22 29 31 23 24
34 43 36 10 68 56 26 53 87 84 34 100 95 91 103 90 83 75 70 68 63 57 56 50 43 41 41 35 40 42 37 25 23 30 19 22 19 23 25 27 30 23 28 25
43 37 45 51 66 47 40 23 42 55 41 80 79 84 80 88 84 75 70 65 61 57 48 45 46 40 31 38 45 46 32 27 32 24 11 24 22 22 26 27 18 22 18 21
40 48 38 45 26 17 8 17 31 37 49 44 63 78 72 74 75 72 60 50 41 41 39 37 35 29 29 32 43 41 32 27 28 27 31 26 24 18 8 14 20 26 26 7
58 50 43 51 48 12 5 16 12 33 49 67 71 72 70 66 66 62 58 50 41 37 34 31 26 24 31 31 44 40 28 22 20 9 20 25 19 17 22 23 15 16 10 9
71 61 52 42 18 17 16 12 41 37 52 74 80 75 70 67 69 64 60 49 42 37 27 24 25 29 35 45 40 32 20 28 35 30 27 25 32 20 25 19 12 7 12 12
71 55 51 31 22 18 24 32 45 58 65 71 70 67 63 59 58 56 51 51 35 33 29 35 30 35 40 45 33 26 25 27 16 24 31 17 19 10 19 19 23 24 17 17
69 53 38 36 31 30 31 46 63 74 76 70 59 60 61 59 49 47 42 31 26 28 27 31 34 38 35 39 40 35 26 10 13 15 9 13 18 16 7 9 10 12 17 18
52 62 46 38 42 39 37 45 55 59 62 60 52 51 54 48 41 32 25 32 41 29 23 30 40 28 19 24 32 28 13 10 14 11 9 14 21 13 16 19 20 22 24 25
11 49 52 55 47 43 49 39 43 47 48 51 55 52 47 42 39 46 42 35 35 30 27 45 38 28 24 22 17 12 15 15 6 17 14 13 10 18 23 22 20 21 21 24
21 42 48 47 48 54 49 41 47 46 44 41 35 32 35 41 45 38 30 25 26 28 35 38 31 25 23 29 26 22 12 19 14 12 2 13 9 12 12 12 14 21 26 25
9 52 56 63 59 60 57 55 49 39 34 31 26 28 25 37 43 36 30 26 24 43 32 32 34 23 23 28 25 24 22 24 28 26 25 28 26 24 18 22 22 21 25 26
48 70 64 54 61 53 46 46 41 35 33 36 39 43 40 30 27 33 29 28 41 41 25 31 27 27 27 26 20 17 23 26 27 30 26 22 22 25 24 23 25 31 26 24
74 68 64 60 52 49 52 48 48 40 39 45 46 32 26 35 37 33 26 27 40 40 31 27 24 24 17 19 24 24 24 25 26 29 28 18 19 24 23 23 27 31 26 30
Wind_Direction_850mb
292 292 295 274 259 229 209 221 204 249 158 186 201 189 183 153 131 148 154 157 161 163 170 173 171 167 164 173 181 176 183 194 200 201 213 226 214 170 116 117 99 92 81 60
292 293 297 301 293 295 266 211 227 238 220 192 206 157 151 155 185 184 160 162 166 170 174 173 175 171 172 180 183 187 198 205 206 206 200 186 168 139 124 115 99 93 86 65
258 282 305 315 278 290 294 282 198 226 237 189 153 159 178 184 193 188 161 157 167 172 178 176 179 175 181 186 188 198 199 196 198 192 180 169 154 143 129 117 104 89 79 79
228 256 277 261 290 289 292 287 288 299 278 273 172 179 183 187 185 167 160 170 178 177 179 178 178 183 184 193 196 195 195 195 190 184 172 161 153 144 131 113 98 81 71 72
171 236 255 285 282 276 261 279 264 246 257 105 117 135 147 174 174 174 185 175 175 182 185 179 177 187 191 196 194 192 195 188 184 180 169 161 152 147 132 106 85 58 43 91
295 261 265 253 338 320 280 264 347 290 213 137 145 153 183 167 175 180 177 173 171 176 178 175 181 188 193 194 193 195 193 182 178 176 172 164 165 164 153 135 116 95 334 50
261 234 260 19 332 38 71 271 345 7 354 180 181 196 183 174 176 172 173 167 171 177 177 180 182 188 190 189 193 191 186 179 180 182 170 172 164 150 147 115 100 116 146 221
309 218 268 355 9 59 289 343 354 14 16 71 104 112 137 156 168 148 149 158 164 171 178 180 183 189 186 183 192 194 190 185 184 182 176 170 161 145 145 133 119 105 317 299
29 292 46 26 6 360 355 352 358 354 22 113 121 117 129 137 143 108 225 164 170 171 172 175 183 190 177 182 192 199 189 184 175 168 159 181 158 135 139 144 288 331 325 322
344 328 356 341 344 342 346 344 337 335 32 143 124 130 134 156 180 185 180 171 169 170 169 172 183 187 188 183 194 200 186 171 158 160 176 181 154 155 166 291 231 281 269 259
260 291 350 16 349 347 330 338 344 353 21 175 155 157 148 150 155 162 159 165 169 172 172 175 183 191 187 183 199 188 177 168 170 179 188 172 163 164 194 265 94 91 84 101
245 263 241 276 325 324 320 335 324 322 315 186 199 149 144 155 160 158 158 166 169 176 183 183 186 191 184 193 190 182 174 169 161 145 158 160 168 182 193 244 227 231 252 299
199 271 272 267 276 287 304 305 305 306 290 237 176 152 131 169 164 159 167 173 185 188 185 183 189 190 184 185 177 177 168 162 168 183 199 197 208 219 231 273 261 247 259 298
207 116 286 278 252 226 168 357 272 275 288 258 195 172 163 169 165 168 171 175 177 176 179 189 187 186 179 172 170 170 164 190 208 210 229 230 225 243 260 271 268 278 267 291
212 226 218 306 281 238 251 229 249 265 259 176 171 156 154 157 162 164 169 175 175 177 182 185 189 184 175 167 173 176 179 193 195 191 219 223 235 248 256 254 267 275 301 300
276 276 246 254 238 253 211 247 282 313 159 120 137 144 152 164 160 160 168 176 175 177 186 189 192 186 181 174 169 173 174 184 199 210 217 231 248 251 272 277 288 311 315 326
266 276 293 296 317 0 209 257 305 293 132 139 138 143 142 149 150 152 159 168 179 187 182 183 188 183 181 182 169 168 168 179 198 220 244 231 241 278 289 284 287 298 311 319
274 275 267 266 282 261 330 298 195 175 167 159 148 155 157 158 152 158 165 169 176 176 183 183 190 195 186 176 158 162 182 204 213 197 174 195 224 238 256 279 304 314 328 343
249 260 261 253 244 217 244 225 177 190 169 160 158 159 164 165 166 165 166 173 175 177 189 203 198 189 177 168 178 191 224 242 240 246 245 246 254 253 271 299 313 308 315 308
237 251 251 258 241 230 222 201 185 172 166 162 161 158 160 161 165 173 177 177 190 176 184 200 184 185 179 175 192 207 204 208 281 284 254 208 254 243 289 265 287 273 279 287
227 235 233 245 187 187 158 160 161 163 169 164 164 161 160 161 165 171 172 178 179 169 165 183 178 167 179 188 193 189 198 236 301 288 302 316 305 302 262 238 269 273 288 294
219 230 232 203 170 151 150 163 176 161 159 163 161 161 162 165 169 168 172 170 173 177 168 174 159 152 168 168 179 183 218 306 258 316 330 294 297 268 246 262 278 293 298 305
350 216 199 170 173 168 152 154 163 171 170 164 161 166 169 169 168 159 170 184 174 174 165 158 159 172 194 189 189 229 282 245 312 310 305 320 301 271 274 285 297 301 305 307
0 144 158 153 144 136 133 140 148 150 157 156 165 168 166 164 164 175 176 162 173 152 152 162 169 186 200 200 211 225 273 312 256 275 197 310 336 290 271 263 284 302 305 296
182 155 149 145 135 134 142 143 146 149 152 153 158 165 162 163 158 168 174 164 161 158 168 192 190 193 199 215 224 229 234 258 275 236 268 294 308 274 273 301 310 303 302 307
182 155 151 151 153 150 150 158 153 154 156 149 146 140 143 154 177 172 178 173 171 172 170 178 189 202 205 216 237 230 231 250 254 256 276 284 275 251 265 281 288 302 298 289
163 160 152 145 142 150 148 142 147 138 148 146 145 155 176 171 168 165 166 170 176 175 180 197 205 200 214 238 249 252 254 268 224 252 275 284 260 266 273 279 296 311 298 297